Change the Weather History Date:

Saturday, November 3, 2012

  Actual Average Record
Temperature  
Mean Temperature 47 °F 42 °F  
Max Temperature 49 °F 47 °F 61 °F (2010)
Min Temperature 44 °F 38 °F 23 °F (1961)
Degree Days  
Heating Degree Days 18 23  
Month to date heating degree days 64 68  
Since 1 July heating degree days 1492 1368  
Cooling Degree Days 0    
Month to date cooling degree days 0  
Year to date cooling degree days 7  
Moisture  
Dew Point 43 °F    
Average Humidity 0    
Maximum Humidity 0    
Minimum Humidity 0    
Precipitation  
Precipitation 0.22 in 0.47 in 2.39 in (1976)
Month to date precipitation 1.10 1.41  
Year to date precipitation 83.72 80.03  
Snow  
Snow 0.00 in 0.10 in 1.80 in (1984)
Month to date snowfall 0.0 0.2  
Since 1 July snowfall T 0.3  
Since 1 September snowfall 0.0 0.3  
Snow Depth 0.00 in    
Sea Level Pressure  
Sea Level Pressure 29.71 in    
Wind  
Wind Speed 13 mph (SE)    
Max Wind Speed 23 mph    
Max Gust Speed 32 mph    
Visibility 10 miles    
Events Rain    
T = Trace of Precipitation, MM = Missing Value Source: NWS Daily Summary

Daily Weather History Graph

Daily Weather History Graph

Search for Another Location

Airport or City:

Trip Planner

Search our weather history database for the weather conditions in past years. The results will help you decide how hot, cold, wet, or windy it might be!

Date:

Astronomy

Nov. 03, 2012 Rise Set
Actual Time 7:55 AM AKDT 5:03 PM AKDT
Civil Twilight 7:16 AM AKDT 5:42 PM AKDT
Nautical Twilight 6:33 AM AKDT 6:25 PM AKDT
Astronomical Twilight 5:51 AM AKDT 7:07 PM AKDT
Moon 8:34 PM AKDT (11/3) 12:22 PM AKDT (11/3)
Length of Visible Light 10h 25m
Length of Day
9h 07m
Waning Gibbous, 79% of the Moon is Illuminated
Nov 3
Waning Gibbous
Nov 6
Last Quarter
Nov 13
New
Nov 20
First Quarter
Nov 28
Full

Hourly Weather History & Observations

Time (AKDT) Temp. Windchill Dew Point Humidity Pressure Visibility Wind Dir Wind Speed Gust Speed Precip Events Conditions
12:29 AM 44.6 °F 39.7 °F 41.0 °F 87% 29.65 in 10.0 mi ESE 9.2 mph - 0.00 in Rain Light Rain
12:53 AM 44.1 °F 39.5 °F 41.0 °F 89% 29.66 in 10.0 mi ESE 8.1 mph - 0.00 in   Overcast
1:29 AM 44.6 °F 38.8 °F 42.8 °F 93% 29.65 in 10.0 mi ESE 11.5 mph 18.4 mph N/A   Overcast
1:44 AM 44.6 °F 38.4 °F 42.8 °F 93% 29.65 in 10.0 mi ESE 12.7 mph 20.7 mph N/A   Overcast
1:53 AM 45.0 °F 39.3 °F 42.1 °F 90% 29.65 in 10.0 mi ESE 11.5 mph - N/A   Overcast
2:53 AM 45.0 °F 38.5 °F 41.0 °F 86% 29.64 in 10.0 mi SE 13.8 mph 20.7 mph N/A   Overcast
3:53 AM 45.0 °F 37.6 °F 39.9 °F 82% 29.63 in 10.0 mi ESE 17.3 mph 24.2 mph N/A   Mostly Cloudy
4:53 AM 45.0 °F 37.9 °F 39.9 °F 82% 29.62 in 10.0 mi ESE 16.1 mph 23.0 mph N/A   Overcast
5:53 AM 46.0 °F 39.3 °F 39.0 °F 76% 29.62 in 10.0 mi SE 16.1 mph 25.3 mph N/A   Overcast
6:53 AM 44.1 °F 36.5 °F 41.0 °F 89% 29.59 in 9.0 mi ESE 17.3 mph 25.3 mph 0.03 in Rain Light Rain
7:53 AM 45.0 °F 36.6 °F 39.9 °F 82% 29.60 in 10.0 mi ESE 21.9 mph 31.1 mph 0.03 in Rain Light Rain
8:53 AM 44.1 °F 37.4 °F 41.0 °F 89% 29.62 in 8.0 mi ESE 13.8 mph 24.2 mph 0.10 in Rain Light Rain
9:53 AM 46.0 °F 39.3 °F 42.1 °F 86% 29.63 in 10.0 mi SE 16.1 mph 29.9 mph 0.02 in   Overcast
10:15 AM 46.4 °F 39.8 °F 42.8 °F 87% 29.63 in 10.0 mi SE 16.1 mph 29.9 mph N/A   Overcast
10:45 AM 44.6 °F 36.6 °F 41.0 °F 87% 29.63 in 9.0 mi SE 19.6 mph 28.8 mph 0.00 in Rain Light Rain
10:53 AM 45.0 °F 37.1 °F 41.0 °F 86% 29.64 in 10.0 mi SE 19.6 mph 29.9 mph 0.00 in Rain Light Rain
11:50 AM 44.6 °F 37.4 °F 42.8 °F 93% 29.66 in 10.0 mi SE 16.1 mph 24.2 mph 0.04 in Rain Light Rain
11:53 AM 44.1 °F 36.8 °F 42.1 °F 93% 29.67 in 10.0 mi SE 16.1 mph 24.2 mph 0.04 in Rain Light Rain
12:53 PM 46.9 °F - 44.1 °F 90% 29.68 in 10.0 mi SE 15.0 mph 26.5 mph 0.00 in   Overcast
1:53 PM 48.0 °F - 45.0 °F 89% 29.70 in 10.0 mi SSE 10.4 mph 18.4 mph N/A   Overcast
2:53 PM 48.0 °F - 45.0 °F 89% 29.71 in 10.0 mi SE 11.5 mph - 0.00 in   Overcast
3:29 PM 48.2 °F - 42.8 °F 82% 29.71 in 10.0 mi SSE 10.4 mph 18.4 mph N/A   Overcast
3:53 PM 48.0 °F - 43.0 °F 83% 29.73 in 10.0 mi SE 10.4 mph 18.4 mph N/A   Overcast
4:42 PM 48.2 °F - 44.6 °F 87% 29.73 in 10.0 mi SSE 11.5 mph - N/A   Mostly Cloudy
4:53 PM 48.0 °F - 45.0 °F 89% 29.74 in 10.0 mi SSE 12.7 mph 17.3 mph N/A   Overcast
5:04 PM 48.2 °F - 44.6 °F 87% 29.74 in 10.0 mi SSE 8.1 mph - N/A   Overcast
5:53 PM 48.0 °F - 45.0 °F 89% 29.76 in 10.0 mi SE 11.5 mph 18.4 mph N/A   Overcast
6:04 PM 48.2 °F - 44.6 °F 87% 29.76 in 10.0 mi SE 11.5 mph - N/A   Overcast
6:44 PM 48.2 °F - 44.6 °F 87% 29.77 in 10.0 mi SE 11.5 mph - N/A   Overcast
6:53 PM 48.0 °F - 45.0 °F 89% 29.78 in 10.0 mi SE 11.5 mph 18.4 mph N/A   Overcast
7:03 PM 48.2 °F - 44.6 °F 87% 29.78 in 10.0 mi SE 12.7 mph 19.6 mph N/A   Overcast
7:14 PM 48.2 °F - 44.6 °F 87% 29.78 in 10.0 mi SE 11.5 mph 19.6 mph N/A   Overcast
7:36 PM 48.2 °F - 44.6 °F 87% 29.78 in 10.0 mi SE 12.7 mph 21.9 mph N/A   Overcast
7:45 PM 48.2 °F - 44.6 °F 87% 29.78 in 10.0 mi SE 12.7 mph 20.7 mph N/A   Overcast
7:53 PM 46.9 °F - 44.1 °F 90% 29.79 in 10.0 mi SE 13.8 mph 21.9 mph N/A   Overcast
8:53 PM 46.9 °F - 43.0 °F 86% 29.80 in 10.0 mi SE 13.8 mph - N/A   Mostly Cloudy
9:53 PM 46.9 °F - 43.0 °F 86% 29.81 in 10.0 mi SE 13.8 mph - N/A   Partly Cloudy
10:12 PM 46.4 °F 40.7 °F 42.8 °F 87% 29.81 in 10.0 mi SE 12.7 mph - N/A   Mostly Cloudy
10:53 PM 46.9 °F - 43.0 °F 86% 29.81 in 10.0 mi SE 13.8 mph 20.7 mph N/A   Overcast
11:13 PM 48.2 °F - 42.8 °F 82% 29.81 in 10.0 mi SE 13.8 mph 21.9 mph N/A   Mostly Cloudy
11:53 PM 46.9 °F - 42.1 °F 83% 29.81 in 10.0 mi SE 12.7 mph - N/A   Mostly Cloudy